Dublin, Ireland

8:17 AM IST on June 23, 2017 (GMT +0100)
Dublin International

Weather History for EIDW - October, 2013

Change the Weather History Date:

Friday, October 4, 2013

  Actual Average Record
Temperature  
Mean Temperature 57 °F -  
Max Temperature 61 °F 56 °F 62 °F (2002)
Min Temperature 53 °F 45 °F 34 °F (2015)
Degree Days  
Heating Degree Days 8    
Growing Degree Days 7 (Base 50)    
Moisture  
Dew Point 55 °F    
Average Humidity 90    
Maximum Humidity 100    
Minimum Humidity 72    
Precipitation  
Precipitation 0.00 in 0.09 in - ()
Sea Level Pressure  
Sea Level Pressure 29.70 in    
Wind  
Wind Speed 7 mph ()    
Max Wind Speed 16 mph    
Max Gust Speed -    
Visibility 5.1 miles    
Events Rain    
Averages and records for this station are not official NWS values.
T = Trace of Precipitation, MM = Missing Value Source: Averaged Metar Reports

Daily Weather History Graph

Daily Weather History Graph

Search for Another Location

Airport or City:

Trip Planner

Search our weather history database for the weather conditions in past years. The results will help you decide how hot, cold, wet, or windy it might be!

Date:

Astronomy

Oct. 04, 2013 Rise Set
Actual Time 7:32 AM IST 6:54 PM IST
Civil Twilight 6:57 AM IST 7:28 PM IST
Nautical Twilight 6:16 AM IST 8:09 PM IST
Astronomical Twilight 5:35 AM IST 8:50 PM IST
Moon 6:52 AM IST (10/4) 6:25 PM IST (10/4)
Length of Visible Light 12h 31m
Length of Day
11h 22m
Waning Crescent, 0% of the Moon is Illuminated
Oct 4
Waning Crescent
Oct 5
New
Oct 12
First Quarter
Oct 19
Full
Oct 27
Last Quarter

Hourly Weather History & Observations

Time (IST) Temp. Dew Point Humidity Pressure Visibility Wind Dir Wind Speed Gust Speed Precip Events Conditions
12:00 AM 59.0 °F 57.2 °F 94% 29.53 in 2.5 mi ESE 2.3 mph - N/A Rain Light Rain
12:30 AM 59.0 °F 57.2 °F 94% 29.53 in 2.5 mi Variable 2.3 mph - N/A Rain Light Rain
1:00 AM 58 °F 57 °F 97% 29.55 in 2 mi SE 2.2 mph - - Rain Light Rain
1:00 AM 57.2 °F 57.2 °F 100% 29.53 in 2.5 mi SSE 1.2 mph - N/A Rain Light Rain
1:30 AM 57.2 °F 57.2 °F 100% 29.53 in 2.5 mi East 3.5 mph - N/A Rain Light Rain
2:00 AM 57.2 °F 57.2 °F 100% 29.56 in 2.2 mi SE 2.3 mph - N/A Rain Light Rain
2:30 AM 57.2 °F 57.2 °F 100% 29.56 in 2.2 mi North 1.2 mph - N/A Rain Light Rain
3:00 AM 57.2 °F 57.2 °F 100% 29.56 in 2.2 mi West 1.2 mph - N/A Rain Light Rain
3:30 AM 57.2 °F 57.2 °F 100% 29.56 in 2.5 mi West 1.2 mph - N/A   Mostly Cloudy
4:00 AM 57.2 °F 57.2 °F 100% 29.56 in 2.5 mi West 3.5 mph - N/A   Mostly Cloudy
4:30 AM 57.2 °F 57.2 °F 100% 29.56 in 3.1 mi WNW 4.6 mph - N/A   Mostly Cloudy
5:30 AM 59.0 °F 57.2 °F 94% 29.56 in 3.1 mi WNW 5.8 mph - N/A   Mostly Cloudy
6:00 AM 59.0 °F 57.2 °F 94% 29.56 in 3.7 mi WNW 6.9 mph - N/A   Mostly Cloudy
6:30 AM 59.0 °F 57.2 °F 94% 29.56 in 4.3 mi WNW 9.2 mph - N/A   Mostly Cloudy
7:00 AM 58 °F 57 °F 94% 29.60 in 7 mi West 11.2 mph - -   Mist
7:00 AM 57.2 °F 57.2 °F 100% 29.59 in 6.2 mi West 11.5 mph - N/A   Mostly Cloudy
7:30 AM 57.2 °F 55.4 °F 94% 29.59 in 6.2 mi West 12.7 mph - N/A   Mostly Cloudy
8:00 AM 55.4 °F 55.4 °F 100% 29.62 in 6.2 mi West 11.5 mph - N/A   Light Drizzle
8:30 AM 55.4 °F 55.4 °F 100% 29.62 in 6.2 mi West 12.7 mph - N/A   Mostly Cloudy
9:00 AM 55.4 °F 55.4 °F 100% 29.62 in 6.2 mi West 12.7 mph - N/A   Mostly Cloudy
9:30 AM 57.2 °F 55.4 °F 94% 29.65 in 6.2 mi West 13.8 mph - N/A   Mostly Cloudy
10:00 AM 57.2 °F 55.4 °F 94% 29.65 in 6.2 mi West 15.0 mph - N/A   Mostly Cloudy
10:30 AM 57.2 °F 53.6 °F 88% 29.68 in 6.2 mi West 16.1 mph - N/A   Mostly Cloudy
11:00 AM 57.2 °F 53.6 °F 88% 29.68 in 6.2 mi West 15.0 mph - N/A   Mostly Cloudy
11:30 AM 59.0 °F 53.6 °F 82% 29.68 in 6.2 mi West 12.7 mph - N/A   Mostly Cloudy
12:00 PM 59.0 °F 53.6 °F 82% 29.71 in 6.2 mi WNW 12.7 mph - N/A   Light Drizzle
12:30 PM 59.0 °F 53.6 °F 82% 29.71 in 6.2 mi West 13.8 mph - N/A   Mostly Cloudy
1:00 PM 60 °F 56 °F 81% 29.74 in 25 mi West 13.4 mph - - Rain Light Rain Showers
1:00 PM 60.8 °F 55.4 °F 82% 29.71 in 6.2 mi West 13.8 mph - N/A Rain Light Rain Showers
1:30 PM 62.6 °F 53.6 °F 72% 29.74 in 6.2 mi West 12.7 mph - N/A   Scattered Clouds
2:00 PM 59.0 °F 53.6 °F 82% 29.74 in 6.2 mi West 15.0 mph - N/A   Mostly Cloudy
2:30 PM 60.8 °F 53.6 °F 77% 29.74 in 6.2 mi West 12.7 mph - N/A   Mostly Cloudy
3:00 PM 59.0 °F 55.4 °F 88% 29.77 in 6.2 mi WNW 12.7 mph - N/A   Mostly Cloudy
3:30 PM 60.8 °F 55.4 °F 82% 29.77 in 6.2 mi West 10.4 mph - N/A   Mostly Cloudy
4:00 PM 60.8 °F 53.6 °F 77% 29.77 in 6.2 mi West 11.5 mph - N/A   Mostly Cloudy
4:30 PM 60.8 °F 55.4 °F 82% 29.80 in 6.2 mi WSW 10.4 mph - N/A   Mostly Cloudy
5:00 PM 60.8 °F 53.6 °F 77% 29.80 in - West 12.7 mph - N/A   Mostly Cloudy
5:30 PM 59.0 °F 53.6 °F 82% 29.80 in - West 11.5 mph - N/A Rain Light Rain Showers
6:00 PM 59.0 °F 53.6 °F 82% 29.80 in - WSW 8.1 mph - N/A   Mostly Cloudy
6:30 PM 59.0 °F 53.6 °F 82% 29.83 in - West 11.5 mph - N/A   Mostly Cloudy
7:00 PM 58 °F 54 °F 82% 29.86 in 25 mi West 8.9 mph - - Rain Light Rain Showers
7:00 PM 57.2 °F 53.6 °F 88% 29.83 in - West 9.2 mph - N/A   Mostly Cloudy
7:30 PM 57.2 °F 53.6 °F 88% 29.86 in 6.2 mi West 10.4 mph - N/A Rain Light Rain Showers
8:00 PM 55.4 °F 53.6 °F 94% 29.86 in 6.2 mi West 6.9 mph - N/A   Scattered Clouds
8:30 PM 55.4 °F 53.6 °F 94% 29.89 in 6.2 mi West 6.9 mph - N/A   Mostly Cloudy
9:00 PM 55.4 °F 53.6 °F 94% 29.89 in 6.2 mi West 8.1 mph - N/A   Mostly Cloudy
9:30 PM 57.2 °F 53.6 °F 88% 29.89 in 6.2 mi West 9.2 mph - N/A   Mostly Cloudy
10:00 PM 55.4 °F 53.6 °F 94% 29.92 in 6.2 mi West 6.9 mph - N/A   Light Drizzle
10:30 PM 55.4 °F 53.6 °F 94% 29.92 in 6.2 mi West 10.4 mph - N/A   Light Drizzle
11:00 PM 53.6 °F 51.8 °F 94% 29.92 in 6.2 mi West 10.4 mph - N/A   Light Drizzle
11:30 PM 53.6 °F 50.0 °F 88% 29.92 in 6.2 mi West 6.9 mph - N/A   Mostly Cloudy